GGSE 3 DEB, 44043

Orbit data source: Space-Track

GGSE 3 DEB, 44043 is space debris in LEO originally from a launch on Tue, 09 Mar 1965 UTC launched from the Air Force Western Test Range (AFWTR). Debris objects in space refer to the collection of defunct objects orbiting the Earth. Examples of debris include non-operational satellites, rocket bodies, and fragments generated from explosions, collisions, or faulty payload assembly.

Loading next visibility...
Identifier
44043, 1965-016L
Orbit
LEO
Last TLE update
11 hours ago
Origin
Manufacturer
Unknown
Mission
Spacecraft
Bus & Motor
Unknown
Mass
Unknown
Launch date (UTC)
1965-03-09 (60 years ago)
Launch vehicle
Unknown
Launch site
Air Force Western Test Range (AFWTR)
Object type
Payload
Rocket body
Debris
Shape & HBR
Unknown
Radar Cross Section
Small (<0.1 m²)

Expand to show TLE details & history

TLE from 11 hours ago
0 GGSE 3 DEB
1 44043U 65016L   25125.93185670  .00000829  00000-0  56115-3 0  9997
2 44043  70.0739 101.7125 0017471 135.6777 224.5736 14.03609662318598
Epoch: 2025-05-05T22:21Z
Definitive object data (Epoch: 2025-05-05T22:21:52.418Z)
Latitude
-0°
Longitude
-97.79423°
Altitude
892.695 km
Speed
7.401 km/s
True Right ascension
06h 46m 50s
True Declination
0° 00' 00"
Sunlit
Object was in daylight at TLE epoch
Visualization TLE readout
Latitude
56.36555°
Longitude
48.41063°
Altitude
878.011 km
Speed
7.425 km/s
Apparent Right ascension
07h 28m 26s
Apparent Declination
59° 56' 33"
Sunlit
Object is in daylight
Visualization observer readout
Local Sidereal Time
17:08:34
Azimuth
342.799° N
Elevation
13.92°
Doppler factor
1
Orbital elements
Apogee altitude
892.03 km
Perigee altitude
866.671 km
Semi-major axis
7,257.488 km
Eccentricity
0.0017471
Inclination
70.0739°
RAAN
101.7125°
Arg. of periapsis
135.6777°
True anomaly
224.43331°
Mean anomaly
224.5736°
Eccentric anomaly
224.50343°
Mean motion
3.51046 °/min
BSTAR
0.00056115
Orbital period
102.55 mins
Loading maneuver chart data...
Loading SW <> Apogee altitude chart data...
Loading historical data...
Loading historical data...
Loading historical data...
Loading historical data...
Loading historical data...
Loading historical data...
Loading historical data...

GGSE 3 DEB Visibility forecast

Observer location: undefined°, undefined°

Span
Click to sort rows by Start time (UTC) header in descending order
Start Az.
Max El. time (UTC)
Max El. Az.
Max El.
End time (UTC)
End Az.
10 mins2025-05-06 09:11:07.244Z342.717° N2025-05-06 09:16:07.244Z63.072° ENE42.12°2025-05-06 09:21:07.244Z143.858° SSE
5 mins2025-05-06 10:58:07.244Z288.453° WNW2025-05-06 11:00:07.244Z265.324° W16.337°2025-05-06 11:03:07.244Z229.917° WSW
6 mins2025-05-06 22:27:07.244Z131.182° SE2025-05-06 22:29:07.244Z106.436° ESE18.896°2025-05-06 22:33:07.244Z59.661° ENE
9 mins2025-05-07 00:10:07.244Z225.028° WSW2025-05-07 00:14:07.244Z301.685° NW40.026°2025-05-07 00:19:07.244Z15.042° NNE
|